TimeAKST,TemperatureF,Dew PointF,Humidity,Sea Level PressureIn,VisibilityMPH,Wind Direction,Wind SpeedMPH,Gust SpeedMPH,PrecipitationIn,Events,Conditions,WindDirDegrees,DateUTC
12:16 AM,12.2,10.4,92,29.92,0.5,NE,3.5,-,N/A,,Overcast,50,2012-11-13 09:16:00
12:36 AM,10.4,6.8,85,29.92,0.5,Calm,Calm,-,N/A,,Overcast,0,2012-11-13 09:36:00
12:56 AM,8.6,6.8,92,29.92,0.5,NE,3.5,-,N/A,,Overcast,40,2012-11-13 09:56:00
1:16 AM,6.8,5.0,92,29.91,2.0,NNE,3.5,-,N/A,,Mostly Cloudy,30,2012-11-13 10:16:00
1:36 AM,6.8,3.2,85,29.91,9.0,North,3.5,-,N/A,,Clear,10,2012-11-13 10:36:00
1:56 AM,8.6,6.8,92,29.90,10.0,NE,4.6,-,N/A,,Clear,50,2012-11-13 10:56:00
2:16 AM,6.8,1.4,79,29.90,4.0,NE,4.6,-,N/A,,Scattered Clouds,50,2012-11-13 11:16:00
2:36 AM,8.6,6.8,92,29.89,2.0,NE,3.5,-,N/A,,Overcast,40,2012-11-13 11:36:00
2:56 AM,8.6,8.6,100,29.90,3.0,NE,3.5,-,N/A,,Overcast,40,2012-11-13 11:56:00
3:16 AM,6.8,3.2,85,29.90,1.5,NE,3.5,-,N/A,,Overcast,40,2012-11-13 12:16:00
3:36 AM,6.8,1.4,79,29.89,2.5,NE,3.5,-,N/A,,Mostly Cloudy,50,2012-11-13 12:36:00
3:56 AM,6.8,5.0,92,29.90,2.5,Calm,Calm,-,N/A,,Mostly Cloudy,0,2012-11-13 12:56:00
4:16 AM,5.0,3.2,92,29.89,1.5,Calm,Calm,-,N/A,,Overcast,0,2012-11-13 13:16:00
4:36 AM,5.0,3.2,92,29.88,3.0,Calm,Calm,-,N/A,,Mostly Cloudy,0,2012-11-13 13:36:00
4:56 AM,3.2,-0.4,85,29.88,2.0,Calm,Calm,-,N/A,,Overcast,0,2012-11-13 13:56:00
5:16 AM,3.2,3.2,100,29.88,7.0,Calm,Calm,-,N/A,,Mostly Cloudy,0,2012-11-13 14:16:00
5:36 AM,5.0,3.2,92,29.88,5.0,NE,3.5,-,N/A,,Mostly Cloudy,40,2012-11-13 14:36:00
5:56 AM,6.8,1.4,79,29.87,2.5,NE,3.5,-,N/A,,Overcast,40,2012-11-13 14:56:00
6:16 AM,6.8,6.8,100,29.86,2.0,NE,5.8,-,N/A,,Overcast,50,2012-11-13 15:16:00
6:36 AM,5.0,-0.4,78,29.88,5.0,NE,4.6,-,N/A,,Overcast,40,2012-11-13 15:36:00
6:56 AM,3.2,-0.4,85,29.88,5.0,NE,4.6,-,N/A,,Overcast,50,2012-11-13 15:56:00
7:16 AM,3.2,3.2,100,29.88,10.0,NE,3.5,-,N/A,,Overcast,50,2012-11-13 16:16:00
7:36 AM,1.4,-2.2,85,29.88,10.0,NE,3.5,-,N/A,,Mostly Cloudy,50,2012-11-13 16:36:00
7:56 AM,3.2,3.2,100,29.87,10.0,NE,3.5,-,N/A,,Partly Cloudy,50,2012-11-13 16:56:00
8:16 AM,5.0,5.0,100,29.88,10.0,ENE,3.5,-,N/A,,Clear,70,2012-11-13 17:16:00
8:36 AM,5.0,1.4,85,29.88,10.0,ENE,3.5,-,N/A,,Partly Cloudy,60,2012-11-13 17:36:00
8:56 AM,3.2,1.4,92,29.88,10.0,Calm,Calm,-,N/A,,Mostly Cloudy,0,2012-11-13 17:56:00
9:16 AM,6.8,5.0,92,29.89,10.0,Calm,Calm,-,N/A,,Overcast,0,2012-11-13 18:16:00
9:36 AM,6.8,5.0,92,29.89,10.0,Calm,Calm,-,N/A,,Overcast,0,2012-11-13 18:36:00
9:56 AM,6.8,5.0,92,29.89,3.0,Calm,Calm,-,N/A,,Overcast,0,2012-11-13 18:56:00
10:16 AM,6.8,3.2,85,29.89,6.0,NE,3.5,-,N/A,,Overcast,50,2012-11-13 19:16:00
10:36 AM,5.0,3.2,92,29.89,10.0,NE,5.8,-,N/A,,Overcast,50,2012-11-13 19:36:00
10:56 AM,5.0,3.2,92,29.88,10.0,NE,5.8,-,N/A,,Overcast,40,2012-11-13 19:56:00
11:16 AM,5.0,3.2,92,29.88,10.0,NE,5.8,-,N/A,,Overcast,50,2012-11-13 20:16:00
11:36 AM,5.0,3.2,92,29.88,10.0,NE,4.6,-,N/A,,Overcast,50,2012-11-13 20:36:00
11:56 AM,6.8,5.0,92,29.87,10.0,NE,3.5,-,N/A,,Overcast,50,2012-11-13 20:56:00
12:16 PM,6.8,5.0,92,29.87,10.0,ENE,4.6,-,N/A,,Overcast,70,2012-11-13 21:16:00
12:36 PM,6.8,5.0,92,29.86,8.0,ENE,4.6,-,N/A,,Overcast,70,2012-11-13 21:36:00
12:56 PM,6.8,5.0,92,29.86,8.0,ENE,5.8,-,N/A,,Overcast,60,2012-11-13 21:56:00
1:16 PM,6.8,3.2,85,29.85,7.0,ENE,4.6,-,N/A,,Overcast,60,2012-11-13 22:16:00
1:36 PM,6.8,3.2,85,29.84,10.0,ENE,5.8,-,N/A,,Overcast,60,2012-11-13 22:36:00
1:56 PM,5.0,3.2,92,29.84,10.0,NE,6.9,-,N/A,,Overcast,50,2012-11-13 22:56:00
2:16 PM,5.0,3.2,92,29.84,10.0,NE,8.1,-,N/A,,Overcast,50,2012-11-13 23:16:00
2:36 PM,5.0,3.2,92,29.83,10.0,NNE,6.9,-,N/A,,Overcast,30,2012-11-13 23:36:00
2:56 PM,5.0,3.2,92,29.82,10.0,NE,5.8,-,N/A,,Overcast,40,2012-11-13 23:56:00
3:16 PM,6.8,3.2,85,29.81,10.0,NE,5.8,-,N/A,,Overcast,40,2012-11-14 00:16:00
3:36 PM,6.8,5.0,92,29.81,10.0,NE,3.5,-,N/A,,Overcast,50,2012-11-14 00:36:00
3:56 PM,6.8,5.0,92,29.81,10.0,NE,4.6,-,N/A,,Overcast,50,2012-11-14 00:56:00
4:16 PM,6.8,5.0,92,29.79,10.0,NE,4.6,-,N/A,,Overcast,50,2012-11-14 01:16:00
4:36 PM,6.8,5.0,92,29.78,10.0,NE,4.6,-,N/A,,Overcast,50,2012-11-14 01:36:00
4:56 PM,6.8,5.0,92,29.78,10.0,Calm,Calm,-,N/A,,Overcast,0,2012-11-14 01:56:00
5:16 PM,5.0,1.4,85,29.77,9.0,Calm,Calm,-,N/A,,Overcast,0,2012-11-14 02:16:00
5:36 PM,6.8,3.2,85,29.76,10.0,ENE,3.5,-,N/A,,Overcast,70,2012-11-14 02:36:00
5:56 PM,6.8,3.2,85,29.76,9.0,Calm,Calm,-,N/A,,Overcast,0,2012-11-14 02:56:00
6:16 PM,6.8,3.2,85,29.75,10.0,Calm,Calm,-,N/A,,Overcast,0,2012-11-14 03:16:00
6:36 PM,6.8,3.2,85,29.74,10.0,Calm,Calm,-,N/A,,Overcast,0,2012-11-14 03:36:00
6:56 PM,6.8,5.0,92,29.73,10.0,ENE,3.5,-,N/A,,Overcast,60,2012-11-14 03:56:00
7:16 PM,6.8,3.2,85,29.74,10.0,Calm,Calm,-,N/A,,Overcast,0,2012-11-14 04:16:00
7:36 PM,6.8,5.0,92,29.72,10.0,ENE,3.5,-,N/A,,Overcast,60,2012-11-14 04:36:00
7:56 PM,6.8,5.0,92,29.71,2.0,ENE,3.5,-,N/A,,Overcast,60,2012-11-14 04:56:00
8:16 PM,6.8,5.0,92,29.71,1.5,ENE,3.5,-,N/A,,Overcast,60,2012-11-14 05:16:00
8:36 PM,6.8,5.0,92,29.70,2.5,ENE,3.5,-,N/A,,Overcast,60,2012-11-14 05:36:00
8:56 PM,6.8,3.2,85,29.69,1.8,ENE,3.5,-,N/A,,Overcast,60,2012-11-14 05:56:00
9:16 PM,6.8,3.2,85,29.68,1.8,Calm,Calm,-,N/A,,Overcast,0,2012-11-14 06:16:00
9:36 PM,6.8,5.0,92,29.67,1.8,ENE,3.5,-,N/A,,Overcast,70,2012-11-14 06:36:00
9:56 PM,6.8,5.0,92,29.66,2.0,ENE,3.5,-,N/A,,Overcast,60,2012-11-14 06:56:00
10:16 PM,6.8,5.0,92,29.65,2.0,ENE,3.5,-,N/A,,Overcast,70,2012-11-14 07:16:00
10:36 PM,6.8,5.0,92,29.64,2.5,Calm,Calm,-,N/A,,Overcast,0,2012-11-14 07:36:00
10:56 PM,6.8,5.0,92,29.63,1.5,East,3.5,-,N/A,,Overcast,80,2012-11-14 07:56:00
11:16 PM,6.8,5.0,92,29.62,2.5,ENE,3.5,-,N/A,,Overcast,70,2012-11-14 08:16:00
11:36 PM,6.8,5.0,92,29.61,6.0,NE,4.6,-,N/A,,Overcast,50,2012-11-14 08:36:00
11:56 PM,6.8,6.8,100,29.61,10.0,NE,3.5,-,N/A,,Overcast,50,2012-11-14 08:56:00